Time,TemperatureF,DewpointF,PressureIn,WindDirection,WindDirectionDegrees,WindSpeedMPH,WindSpeedGustMPH,Humidity,HourlyPrecipIn,Conditions,Clouds,dailyrainin,SoftwareType,DateUTC
2013-06-19 00:02:00,69.0,68.0,-100.00,NW,310,2.0,4.0,99,-99.99,,,-99.99,,2013-06-19 04:02:00,
2013-06-19 00:12:00,69.0,68.0,-100.00,NW,310,2.0,4.0,99,-99.99,,,-99.99,,2013-06-19 04:12:00,
2013-06-19 00:22:00,69.0,69.0,-100.00,North,10,1.0,4.0,99,-99.99,,,-99.99,,2013-06-19 04:22:00,
2013-06-19 00:32:00,69.0,69.0,-100.00,North,0,4.0,5.0,99,-99.99,,,-99.99,,2013-06-19 04:32:00,
2013-06-19 00:42:00,70.0,69.0,-100.00,NW,325,4.0,7.0,99,-99.99,,,-99.99,,2013-06-19 04:42:00,
2013-06-19 00:53:00,70.0,69.0,-100.00,NW,310,3.0,6.0,98,-99.99,,,-99.99,,2013-06-19 04:53:00,
2013-06-19 01:01:00,70.0,69.0,-100.00,NW,310,3.0,6.0,98,-99.99,,,-99.99,,2013-06-19 05:01:00,
2013-06-19 01:11:00,70.0,69.0,-100.00,NNW,330,4.0,5.0,98,-99.99,,,-99.99,,2013-06-19 05:11:00,
2013-06-19 01:23:00,70.0,69.0,-100.00,NW,325,3.0,5.0,98,-99.99,,,-99.99,,2013-06-19 05:23:00,
2013-06-19 01:32:00,70.0,69.0,-100.00,NNW,345,2.0,5.0,98,-99.99,,,-99.99,,2013-06-19 05:32:00,
2013-06-19 01:43:00,70.0,69.0,-100.00,North,10,1.0,4.0,97,-99.99,,,-99.99,,2013-06-19 05:43:00,
2013-06-19 01:52:00,70.0,69.0,-100.00,ENE,70,1.0,4.0,96,-99.99,,,-99.99,,2013-06-19 05:52:00,
2013-06-19 02:02:00,69.0,69.0,-100.00,NNE,25,1.0,2.0,98,-99.99,,,-99.99,,2013-06-19 06:02:00,
2013-06-19 02:11:00,69.0,68.0,-100.00,North,0,0.0,4.0,98,-99.99,,,-99.99,,2013-06-19 06:11:00,
2013-06-19 02:22:00,69.0,68.0,-100.00,North,0,0.0,4.0,98,-99.99,,,-99.99,,2013-06-19 06:22:00,
2013-06-19 02:34:00,69.0,69.0,-100.00,NNE,30,0.0,4.0,99,-99.99,,,-99.99,,2013-06-19 06:34:00,
2013-06-19 02:42:00,69.0,69.0,-100.00,ENE,65,2.0,4.0,99,-99.99,,,-99.99,,2013-06-19 06:42:00,
2013-06-19 02:52:00,69.0,68.0,-100.00,North,0,1.0,2.0,99,-99.99,,,-99.99,,2013-06-19 06:52:00,
2013-06-19 03:01:00,68.0,68.0,-100.00,NE,40,0.0,1.0,99,-99.99,,,-99.99,,2013-06-19 07:01:00,
2013-06-19 03:11:00,68.0,68.0,-100.00,NE,50,1.0,1.0,99,-99.99,,,-99.99,,2013-06-19 07:11:00,
2013-06-19 03:22:00,68.0,68.0,-100.00,NNE,25,0.0,2.0,99,-99.99,,,-99.99,,2013-06-19 07:22:00,
2013-06-19 03:33:00,68.0,68.0,-100.00,SE,125,1.0,1.0,99,-99.99,,,-99.99,,2013-06-19 07:33:00,
2013-06-19 03:43:00,68.0,68.0,-100.00,East,95,1.0,1.0,99,-99.99,,,-99.99,,2013-06-19 07:43:00,
2013-06-19 03:53:00,68.0,67.0,-100.00,SE,135,0.0,0.0,99,-99.99,,,-99.99,,2013-06-19 07:53:00,
2013-06-19 04:02:00,68.0,68.0,-100.00,NNW,345,0.0,1.0,99,-99.99,,,-99.99,,2013-06-19 08:02:00,
2013-06-19 04:11:00,68.0,68.0,-100.00,WNW,300,1.0,2.0,99,-99.99,,,-99.99,,2013-06-19 08:11:00,
2013-06-19 04:22:00,68.0,68.0,-100.00,WNW,300,1.0,2.0,99,-99.99,,,-99.99,,2013-06-19 08:22:00,
2013-06-19 04:34:00,68.0,68.0,-100.00,NW,305,1.0,2.0,99,-99.99,,,-99.99,,2013-06-19 08:34:00,
2013-06-19 04:43:00,68.0,68.0,-100.00,NW,315,0.0,1.0,99,-99.99,,,-99.99,,2013-06-19 08:43:00,
2013-06-19 04:53:00,68.0,68.0,-100.00,NE,55,1.0,1.0,99,-99.99,,,-99.99,,2013-06-19 08:53:00,
2013-06-19 05:02:00,68.0,68.0,-100.00,East,100,1.0,3.0,99,-99.99,,,-99.99,,2013-06-19 09:02:00,
2013-06-19 05:12:00,68.0,68.0,-100.00,NNE,25,1.0,2.0,99,-99.99,,,-99.99,,2013-06-19 09:12:00,
2013-06-19 05:22:00,68.0,67.0,-100.00,NE,35,1.0,2.0,99,-99.99,,,-99.99,,2013-06-19 09:22:00,
2013-06-19 05:34:00,68.0,67.0,-100.00,North,10,1.0,2.0,99,-99.99,,,-99.99,,2013-06-19 09:34:00,
2013-06-19 05:43:00,68.0,67.0,-100.00,NNE,30,1.0,2.0,99,-99.99,,,-99.99,,2013-06-19 09:43:00,
2013-06-19 05:53:00,68.0,67.0,-100.00,NE,55,0.0,1.0,99,-99.99,,,-99.99,,2013-06-19 09:53:00,
2013-06-19 06:02:00,68.0,68.0,-100.00,NE,45,0.0,2.0,99,-99.99,,,-99.99,,2013-06-19 10:02:00,
2013-06-19 06:12:00,68.0,68.0,-100.00,NNE,20,1.0,3.0,99,-99.99,,,-99.99,,2013-06-19 10:12:00,
2013-06-19 06:22:00,68.0,68.0,-100.00,NE,50,1.0,4.0,99,-99.99,,,-99.99,,2013-06-19 10:22:00,
2013-06-19 06:33:00,68.0,67.0,-100.00,North,10,1.0,3.0,99,-99.99,,,-99.99,,2013-06-19 10:33:00,
2013-06-19 06:42:00,67.0,67.0,-100.00,NE,55,0.0,3.0,99,-99.99,,,-99.99,,2013-06-19 10:42:00,
2013-06-19 06:52:00,67.0,67.0,-100.00,North,0,1.0,5.0,99,-99.99,,,-99.99,,2013-06-19 10:52:00,
2013-06-19 07:02:00,68.0,68.0,-100.00,North,5,1.0,4.0,99,-99.99,,,-99.99,,2013-06-19 11:02:00,
2013-06-19 07:11:00,69.0,68.0,-100.00,NW,325,0.0,4.0,99,-99.99,,,-99.99,,2013-06-19 11:11:00,
2013-06-19 07:22:00,69.0,68.0,-100.00,NE,35,1.0,4.0,99,-99.99,,,-99.99,,2013-06-19 11:22:00,
2013-06-19 07:33:00,69.0,68.0,-100.00,ENE,60,2.0,4.0,99,-99.99,,,-99.99,,2013-06-19 11:33:00,
2013-06-19 07:43:00,69.0,68.0,-100.00,ENE,60,2.0,4.0,99,-99.99,,,-99.99,,2013-06-19 11:43:00,
2013-06-19 07:54:00,69.0,68.0,-100.00,ENE,75,1.0,3.0,99,-99.99,,,-99.99,,2013-06-19 11:54:00,
2013-06-19 08:02:00,70.0,70.0,-100.00,WNW,290,0.0,1.0,99,-99.99,,,-99.99,,2013-06-19 12:02:00,
2013-06-19 08:12:00,71.0,70.0,-100.00,North,0,1.0,2.0,95,-99.99,,,-99.99,,2013-06-19 12:12:00,
2013-06-19 08:22:00,72.0,69.0,-100.00,East,85,1.0,3.0,91,-99.99,,,-99.99,,2013-06-19 12:22:00,
2013-06-19 08:34:00,74.0,70.0,-100.00,ESE,110,1.0,2.0,88,-99.99,,,-99.99,,2013-06-19 12:34:00,
2013-06-19 08:44:00,75.0,68.0,-100.00,North,0,3.0,4.0,79,-99.99,,,-99.99,,2013-06-19 12:44:00,
2013-06-19 08:53:00,76.0,67.0,-100.00,NE,35,2.0,4.0,73,-99.99,,,-99.99,,2013-06-19 12:53:00,
2013-06-19 09:02:00,76.0,67.0,-100.00,NE,35,2.0,4.0,73,-99.99,,,-99.99,,2013-06-19 13:02:00,
2013-06-19 09:12:00,77.0,67.0,-100.00,ESE,110,1.0,5.0,72,-99.99,,,-99.99,,2013-06-19 13:12:00,
2013-06-19 09:22:00,78.0,67.0,-100.00,ENE,65,1.0,5.0,69,-99.99,,,-99.99,,2013-06-19 13:22:00,
2013-06-19 09:33:00,78.0,67.0,-100.00,NE,40,1.0,4.0,69,-99.99,,,-99.99,,2013-06-19 13:33:00,
2013-06-19 09:42:00,80.0,67.0,-100.00,NE,55,2.0,5.0,65,-99.99,,,-99.99,,2013-06-19 13:42:00,
2013-06-19 09:53:00,81.0,67.0,-100.00,North,355,1.0,6.0,64,-99.99,,,-99.99,,2013-06-19 13:53:00,
2013-06-19 10:02:00,81.0,66.0,-100.00,North,0,5.0,9.0,61,-99.99,,,-99.99,,2013-06-19 14:02:00,
2013-06-19 10:12:00,81.0,66.0,-100.00,North,0,5.0,9.0,61,-99.99,,,-99.99,,2013-06-19 14:12:00,
2013-06-19 10:22:00,79.0,65.0,-100.00,ENE,65,6.0,11.0,63,-99.99,,,-99.99,,2013-06-19 14:22:00,
2013-06-19 10:33:00,80.0,66.0,-100.00,NE,55,2.0,11.0,63,-99.99,,,-99.99,,2013-06-19 14:33:00,
2013-06-19 10:44:00,79.0,65.0,-100.00,NE,55,7.0,11.0,62,-99.99,,,-99.99,,2013-06-19 14:44:00,
2013-06-19 10:52:00,79.0,65.0,-100.00,East,90,5.0,10.0,62,-99.99,,,-99.99,,2013-06-19 14:52:00,
2013-06-19 11:02:00,80.0,66.0,-100.00,ENE,75,5.0,11.0,62,-99.99,,,-99.99,,2013-06-19 15:02:00,
2013-06-19 11:11:00,80.0,66.0,-100.00,East,85,5.0,9.0,63,-99.99,,,-99.99,,2013-06-19 15:11:00,
2013-06-19 11:22:00,81.0,67.0,-100.00,North,0,3.0,11.0,62,-99.99,,,-99.99,,2013-06-19 15:22:00,
2013-06-19 11:33:00,81.0,66.0,-100.00,NE,35,4.0,9.0,62,-99.99,,,-99.99,,2013-06-19 15:33:00,
2013-06-19 11:42:00,81.0,66.0,-100.00,NE,35,4.0,9.0,62,-99.99,,,-99.99,,2013-06-19 15:42:00,
2013-06-19 11:53:00,81.0,67.0,-100.00,East,85,9.0,11.0,63,-99.99,,,-99.99,,2013-06-19 15:53:00,
2013-06-19 12:01:00,82.0,68.0,-100.00,East,100,4.0,10.0,63,-99.99,,,-99.99,,2013-06-19 16:01:00,
2013-06-19 12:11:00,82.0,68.0,-100.00,East,100,4.0,10.0,63,-99.99,,,-99.99,,2013-06-19 16:11:00,
2013-06-19 12:22:00,81.0,67.0,-100.00,ENE,70,6.0,10.0,62,-99.99,,,-99.99,,2013-06-19 16:22:00,
2013-06-19 12:34:00,81.0,66.0,-100.00,ENE,70,3.0,11.0,61,-99.99,,,-99.99,,2013-06-19 16:34:00,
2013-06-19 12:43:00,80.0,66.0,-100.00,NE,45,4.0,8.0,61,-99.99,,,-99.99,,2013-06-19 16:43:00,
2013-06-19 12:52:00,81.0,67.0,-100.00,NE,45,2.0,7.0,62,-99.99,,,-99.99,,2013-06-19 16:52:00,
2013-06-19 13:02:00,82.0,67.0,-100.00,North,0,3.0,6.0,60,-99.99,,,-99.99,,2013-06-19 17:02:00,
2013-06-19 13:12:00,82.0,68.0,-100.00,NE,50,5.0,7.0,61,-99.99,,,-99.99,,2013-06-19 17:12:00,
2013-06-19 13:22:00,83.0,68.0,-100.00,East,95,5.0,8.0,61,-99.99,,,-99.99,,2013-06-19 17:22:00,
2013-06-19 13:34:00,83.0,68.0,-100.00,East,80,4.0,8.0,60,-99.99,,,-99.99,,2013-06-19 17:34:00,
2013-06-19 13:43:00,83.0,67.0,-100.00,NNE,30,1.0,6.0,58,-99.99,,,-99.99,,2013-06-19 17:43:00,
2013-06-19 13:53:00,84.0,68.0,-100.00,ESE,110,6.0,11.0,59,-99.99,,,-99.99,,2013-06-19 17:53:00,
2013-06-19 14:02:00,84.0,67.0,-100.00,ESE,105,4.0,9.0,58,-99.99,,,-99.99,,2013-06-19 18:02:00,
2013-06-19 14:12:00,84.0,68.0,-100.00,East,80,4.0,9.0,59,-99.99,,,-99.99,,2013-06-19 18:12:00,
2013-06-19 14:24:00,84.0,68.0,-100.00,ESE,105,5.0,9.0,59,-99.99,,,-99.99,,2013-06-19 18:24:00,
2013-06-19 14:33:00,83.0,67.0,-100.00,East,95,5.0,9.0,60,-99.99,,,-99.99,,2013-06-19 18:33:00,
2013-06-19 14:44:00,83.0,67.0,-100.00,East,95,5.0,9.0,60,-99.99,,,-99.99,,2013-06-19 18:44:00,
2013-06-19 14:53:00,83.0,68.0,-100.00,NE,35,4.0,8.0,60,-99.99,,,-99.99,,2013-06-19 18:53:00,
2013-06-19 15:01:00,83.0,68.0,-100.00,North,10,3.0,6.0,60,-99.99,,,-99.99,,2013-06-19 19:01:00,
2013-06-19 15:12:00,83.0,68.0,-100.00,East,95,5.0,8.0,60,-99.99,,,-99.99,,2013-06-19 19:12:00,
2013-06-19 15:22:00,83.0,68.0,-100.00,East,95,5.0,8.0,60,-99.99,,,-99.99,,2013-06-19 19:22:00,
2013-06-19 15:32:00,82.0,67.0,-100.00,NE,35,4.0,9.0,61,-99.99,,,-99.99,,2013-06-19 19:32:00,
2013-06-19 15:43:00,83.0,68.0,-100.00,NE,35,4.0,6.0,62,-99.99,,,-99.99,,2013-06-19 19:43:00,
2013-06-19 15:52:00,82.0,67.0,-100.00,North,0,1.0,6.0,61,-99.99,,,-99.99,,2013-06-19 19:52:00,
2013-06-19 16:02:00,82.0,68.0,-100.00,NE,45,4.0,7.0,62,-99.99,,,-99.99,,2013-06-19 20:02:00,
2013-06-19 16:11:00,82.0,68.0,-100.00,NE,45,4.0,7.0,62,-99.99,,,-99.99,,2013-06-19 20:11:00,
2013-06-19 16:22:00,82.0,68.0,-100.00,East,80,4.0,8.0,63,-99.99,,,-99.99,,2013-06-19 20:22:00,
2013-06-19 16:33:00,82.0,68.0,-100.00,ENE,75,4.0,6.0,62,-99.99,,,-99.99,,2013-06-19 20:33:00,
2013-06-19 16:42:00,82.0,68.0,-100.00,East,90,4.0,7.0,63,-99.99,,,-99.99,,2013-06-19 20:42:00,
2013-06-19 16:52:00,82.0,68.0,-100.00,East,90,4.0,6.0,64,-99.99,,,-99.99,,2013-06-19 20:52:00,
2013-06-19 17:02:00,82.0,68.0,-100.00,East,80,4.0,6.0,64,-99.99,,,-99.99,,2013-06-19 21:02:00,
2013-06-19 17:12:00,82.0,68.0,-100.00,East,80,4.0,6.0,64,-99.99,,,-99.99,,2013-06-19 21:12:00,
2013-06-19 17:22:00,81.0,68.0,-100.00,ENE,60,2.0,6.0,63,-99.99,,,-99.99,,2013-06-19 21:22:00,
2013-06-19 17:33:00,82.0,68.0,-100.00,East,80,4.0,6.0,62,-99.99,,,-99.99,,2013-06-19 21:33:00,
2013-06-19 17:44:00,82.0,68.0,-100.00,East,90,4.0,6.0,62,-99.99,,,-99.99,,2013-06-19 21:44:00,
2013-06-19 17:52:00,82.0,68.0,-100.00,East,90,4.0,8.0,62,-99.99,,,-99.99,,2013-06-19 21:52:00,
2013-06-19 18:02:00,83.0,69.0,-100.00,East,80,2.0,6.0,62,-99.99,,,-99.99,,2013-06-19 22:02:00,
2013-06-19 18:11:00,83.0,69.0,-100.00,East,85,4.0,7.0,62,-99.99,,,-99.99,,2013-06-19 22:11:00,
2013-06-19 18:22:00,82.0,68.0,-100.00,East,85,3.0,7.0,62,-99.99,,,-99.99,,2013-06-19 22:22:00,
2013-06-19 18:34:00,83.0,68.0,-100.00,East,85,5.0,8.0,60,-99.99,,,-99.99,,2013-06-19 22:34:00,
2013-06-19 18:43:00,83.0,67.0,-100.00,ENE,75,4.0,8.0,58,-99.99,,,-99.99,,2013-06-19 22:43:00,
2013-06-19 18:53:00,83.0,65.0,-100.00,ENE,60,4.0,8.0,56,-99.99,,,-99.99,,2013-06-19 22:53:00,
2013-06-19 19:02:00,82.0,66.0,-100.00,NE,50,4.0,7.0,58,-99.99,,,-99.99,,2013-06-19 23:02:00,
2013-06-19 19:12:00,83.0,67.0,-100.00,NE,55,1.0,6.0,58,-99.99,,,-99.99,,2013-06-19 23:12:00,
2013-06-19 19:23:00,82.0,66.0,-100.00,ENE,60,2.0,8.0,58,-99.99,,,-99.99,,2013-06-19 23:23:00,
2013-06-19 19:33:00,82.0,65.0,-100.00,East,80,4.0,8.0,57,-99.99,,,-99.99,,2013-06-19 23:33:00,
2013-06-19 19:43:00,82.0,65.0,-100.00,ENE,70,4.0,6.0,57,-99.99,,,-99.99,,2013-06-19 23:43:00,
2013-06-19 19:52:00,81.0,65.0,-100.00,East,90,4.0,6.0,58,-99.99,,,-99.99,,2013-06-19 23:52:00,
2013-06-19 20:01:00,81.0,65.0,-100.00,East,85,2.0,6.0,58,-99.99,,,-99.99,,2013-06-20 00:01:00,
2013-06-19 20:12:00,81.0,65.0,-100.00,East,80,1.0,4.0,60,-99.99,,,-99.99,,2013-06-20 00:12:00,
2013-06-19 20:22:00,80.0,65.0,-100.00,ENE,75,1.0,4.0,61,-99.99,,,-99.99,,2013-06-20 00:22:00,
2013-06-19 20:33:00,79.0,65.0,-100.00,NE,35,1.0,3.0,63,-99.99,,,-99.99,,2013-06-20 00:33:00,
2013-06-19 20:44:00,79.0,65.0,-100.00,NE,35,1.0,3.0,63,-99.99,,,-99.99,,2013-06-20 00:44:00,
2013-06-19 20:52:00,78.0,66.0,-100.00,NNE,30,1.0,1.0,68,-99.99,,,-99.99,,2013-06-20 00:52:00,
2013-06-19 21:02:00,76.0,65.0,-100.00,ENE,70,0.0,2.0,67,-99.99,,,-99.99,,2013-06-20 01:02:00,
2013-06-19 21:11:00,75.0,65.0,-100.00,North,5,1.0,2.0,71,-99.99,,,-99.99,,2013-06-20 01:11:00,
2013-06-19 21:22:00,74.0,67.0,-100.00,NE,35,0.0,1.0,79,-99.99,,,-99.99,,2013-06-20 01:22:00,
2013-06-19 21:33:00,73.0,68.0,-100.00,SW,225,0.0,1.0,86,-99.99,,,-99.99,,2013-06-20 01:33:00,
2013-06-19 21:44:00,72.0,69.0,-100.00,NNW,335,1.0,2.0,92,-99.99,,,-99.99,,2013-06-20 01:44:00,
2013-06-19 21:52:00,71.0,70.0,-100.00,NW,325,1.0,2.0,96,-99.99,,,-99.99,,2013-06-20 01:52:00,
2013-06-19 22:02:00,70.0,69.0,-100.00,WNW,290,1.0,2.0,95,-99.99,,,-99.99,,2013-06-20 02:02:00,
2013-06-19 22:11:00,70.0,69.0,-100.00,WNW,290,1.0,2.0,95,-99.99,,,-99.99,,2013-06-20 02:11:00,
2013-06-19 22:24:00,70.0,70.0,-100.00,WNW,295,1.0,2.0,99,-99.99,,,-99.99,,2013-06-20 02:24:00,
2013-06-19 22:34:00,69.0,68.0,-100.00,NW,315,1.0,4.0,99,-99.99,,,-99.99,,2013-06-20 02:34:00,
2013-06-19 22:43:00,69.0,68.0,-100.00,NW,320,1.0,2.0,99,-99.99,,,-99.99,,2013-06-20 02:43:00,
2013-06-19 22:52:00,68.0,68.0,-100.00,West,270,1.0,2.0,99,-99.99,,,-99.99,,2013-06-20 02:52:00,
2013-06-19 23:02:00,68.0,68.0,-100.00,NW,305,0.0,1.0,99,-99.99,,,-99.99,,2013-06-20 03:02:00,
2013-06-19 23:11:00,68.0,68.0,-100.00,NW,315,0.0,2.0,99,-99.99,,,-99.99,,2013-06-20 03:11:00,
2013-06-19 23:22:00,68.0,68.0,-100.00,NW,305,1.0,1.0,99,-99.99,,,-99.99,,2013-06-20 03:22:00,
2013-06-19 23:33:00,68.0,67.0,-100.00,NW,310,1.0,2.0,99,-99.99,,,-99.99,,2013-06-20 03:33:00,
2013-06-19 23:43:00,67.0,67.0,-100.00,WNW,285,1.0,2.0,99,-99.99,,,-99.99,,2013-06-20 03:43:00,
2013-06-19 23:53:00,67.0,67.0,-100.00,West,275,0.0,1.0,99,-99.99,,,-99.99,,2013-06-20 03:53:00,